www.pogodaiklimat.ru

Погода и климат >> Архив погоды >> Индонезия >> Паоанкарая


ПОГОДА в Паоанкарая

  • Прогноз погоды в Паоанкарая
  • Монитор погоды в Паоанкарая

АРХИВ ПОГОДЫ в Паоанкарая

Время (UTC), дата Ветер
(напр.,м/с)
 
Видим.   Явления Облачность Т
(С)
Тd
(С)
f
(%)
Тe
(С)
Тes
(С)
Комфортность P
(гПа)
Po
(гПа)
Тmin
(С)
Tmax
(С)
R
(мм)
R24
(мм)
S
(см)
06 15.08 СЗ 2 3000 м дым {туман} 8/6 330 м
[Sc As trans Ci fib]
+33.3 +22.0 52 +42 +47 опасность
перегрева
1012.4 1008.7
09 15.08 Ю 4 10 км 6/5 330 м
[Sc As trans Ci fib]
+32.8 +21.3 51 +41 +42 опасность
перегрева
1010.6 1007.0
12 15.08 Ю 6 5000 м дым {туман} 6/5 360 м
[Sc As trans Ci fib]
+27.8 +24.4 82 +39 +39 очень
душно
1012.4 1009.2 +33.9
15 15.08 ЮЗ 3 4000 м дым {туман} 6/5 360 м
[Sc As trans Ci fib]
+25.4 +23.9 91 +35 +35 очень
душно
1014.4 1011.1
18 15.08 Ю 2 8000 м 6/5 360 м
[Sc As trans Ci fib]
+24.4 +22.9 91 +32 +32 очень
душно
1013.8 1010.5
21 15.08 ЮЗ 1 4000 м дым {туман} 6/5 360 м
[Sc As trans Ci fib]
+22.8 +21.9 95 +31 +31 очень
душно
1013.2 1009.9
00 16.08 Ю 3 1200 м дым {туман} ?/? +24.1 +21.4 85 +31 +31 очень
душно
1014.7 1011.6 +21.8
03 16.08 СВ 4 7000 м 3/1 360 м
[Sc As trans Ci fib]
+30.9 +21.9 59 +40 +50 очень
душно
1014.9 1011.7
06 16.08 В 1 5000 м дым {туман} ?/? +33.3 +18.8 42 +38 +38 очень
душно
1012.0 1008.8
09 16.08 ЮЗ 3 8000 м 5/4 300 м
[Sc As trans Ci fib]
+33.2 +17.4 39 +37 +38 очень
душно
1010.4 1007.3
12 16.08 Ю 3 5000 м дым {туман} ?/? +27.4 +22.5 75 +36 +36 очень
душно
1012.4 1009.2 +34.3
15 16.08 4000 м дым {туман} 3 балла +25.1 +23.3 90 1014.4 1011.2
18 16.08 Ю 2 4000 м дым {туман} ?/? +24.0 +23.2 95 +32 +32 очень
душно
1014.2 1011.0
21 16.08 штиль 0 3000 м дым {туман} 5 баллов +23.2 +22.3 95 +32 +32 очень
душно
1012.1 1009.3
00 17.08 Ю 3 7000 м 8/6 400 м
[Sc As trans Ci fib]
+24.2 +22.5 90 +32 +32 очень
душно
1015.0 1011.9 +22.5
03 17.08 Ю 6 3000 м дым {туман} 5/5 360 м
[Sc]
+30.2 +22.3 63 +39 +43 очень
душно
1015.2 1012.0
06 17.08 ЮЗ 2 5000 м дым 6/6 360 м
[Sc As trans]
+32.4 +20.8 50 +39 +46 очень
душно
1012.8 1009.2
09 17.08 ЮЗ 3 9000 м 6/6 360 м
[Sc As trans Ci fib]
+32.5 +21.4 52 +40 +41 очень
душно
1011.2 1007.6
12 17.08 Ю 5 7000 м 6/6 360 м
[Sc As trans Ci fib]
+27.1 +23.8 82 +37 +37 очень
душно
1013.1 1010.0 +33.5
15 17.08 Ю 3 8000 м 6/5 360 м
[Sc As trans Ci fib]
+25.6 +23.7 89 +35 +35 очень
душно
1014.9 1011.8
18 17.08 Ю 2 6000 м 6/5 360 м
[Sc As trans Ci fib]
+25.1 +23.6 91 +34 +34 очень
душно
1014.5 1011.3
21 17.08 Ю 3 2000 м дым {туман} ?/? +24.5 +22.8 90 +32 +32 очень
душно
1013.5 1010.4
00 18.08 В 2 1100 м дым {туман} ?/? +25.8 +22.7 83 +34 +34 очень
душно
1015.0 1011.3 +23.6
03 18.08 В 2 3200 м дым 8/5 330 м
[Sc As trans Ci fib]
+30.1 +22.4 63 +39 +46 очень
душно
1015.3 1011.6
06 18.08 Ю 2 6000 м дым 8/5 300 м
[Sc As op Ci fib]
+30.5 +20.7 56 +38 +44 очень
душно
1012.3 1009.1
09 18.08 ЮЗ 4 6000 м дым 6/5 300 м
[Sc As op Ci fib]
+31.0 +21.2 56 +39 +40 очень
душно
1010.7 1007.7 +32.8
12 18.08 Ю 4 2500 м дым {туман} 5/5 300 м
[Sc]
+28.4 +21.8 67 +36 +36 очень
душно
1012.3 1009.2 +32.8
15 18.08 Ю 4 7000 м 3/1 400 м
[Sc As trans Ci fib]
+25.0 +21.8 82 +32 +32 очень
душно
1014.3 1011.1
18 18.08 Ю 3 6000 м 3/1 400 м
[Sc As trans Ci fib]
+23.6 +21.2 86 +30 +30 очень
душно
1013.3 1010.2
21 18.08 ЮЗ 3 6000 м 3/1 400 м
[Sc As trans Ci fib]
+23.0 +20.9 88 +30 +30 очень
душно
1013.9 1010.8
00 19.08 Ю 3 5000 м мгла 6/5 360 м
[Sc Ac As Ci fib]
+25.6 +21.8 80 +33 +34 очень
душно
1014.9 1011.3 +22.8
03 19.08 Ю 4 6000 м 6/6 400 м
[Sc As trans Ci fib]
+30.4 +23.4 66 +41 +46 опасность
перегрева
1014.5 1010.8
06 19.08 Ю 6 9000 м 9/6 360 м
[Sc As op Ci fib]
+31.2 +22.3 59 +40 +42 очень
душно
1010.7 1007.2
09 19.08 Ю 5 8000 м в посл. час гроза 9/6 360 м
[Cb cap As op Ci fib]
+29.5 +22.1 64 +38 +38 очень
душно
1010.2 1007.1
12 19.08 З 3 2500 м слаб. дождь 9/6 330 м
[Cb cap As op Ci fib]
+23.9 +22.3 91 +31 +31 очень
душно
1013.3 1010.1 +31.6 17
15 19.08 ЮЗ 3 4000 м гроза, ливневой дождь 10/8 330 м
[Cb cap As op Ci fib]
+23.5 +22.5 94 +31 +31 очень
душно
1015.6 1012.4 11
18 19.08 штиль 0 5000 м слаб. дождь {гроза} 10/8 360 м
[Sc As op Ci fib]
+23.3 +23.0 98 +33 +33 очень
душно
1013.3 1010.1 10
21 19.08 штиль 0 7000 м осадки на расстоянии 10/8 360 м
[Sc As trans Ci fib]
+23.3 +23.0 98 +33 +33 очень
душно
1012.7 1009.5 0.1
00 20.08 Ю 2 7000 м 9/6 360 м
[Sc As op Ci fib]
+24.6 +23.5 94 +33 +34 очень
душно
1014.9 1011.2 +23.4 38
03 20.08 ЮВ 3 6000 м 8/6 400 м
[Sc As trans Ci fib]
+28.9 +23.7 74 +40 +45 очень
душно
1014.8 1011.1
06 20.08 В 3 10 км 8/8 360 м
[Cu med, cong As trans Ci fib]
+32.5 +21.4 52 +40 +44 очень
душно
1012.1 1008.9
09 20.08 З 7 10 км 8/8 360 м
[Cb cap As trans Ci fib]
+29.6 +24.7 75 +42 +42 опасность
перегрева
1011.3 1008.2
12 20.08 В 2 8000 м {гроза, дождь} 6/5 400 м
[Sc As trans Ci fib]
+25.0 +21.7 82 +32 +32 очень
душно
1012.5 1009.4 +33.2 1
15 20.08 З 2 8000 м 6/5 400 м
[Sc As trans Ci fib]
+24.4 +22.1 87 +32 +32 очень
душно
1012.7 1009.6
18 20.08 В 2 8000 м 6/5 400 м
[Sc As trans Ci fib]
+23.7 +21.8 89 +30 +30 очень
душно
1011.3 1008.3
21 20.08 З 2 2000 м туман 6/5 400 м
[Sc As trans Ci fib]
+23.3 +21.7 91 +32 +32 очень
душно
1011.3 1008.3
00 21.08 ЮВ 1 700 м туман 4/1 400 м
[Sc As trans Ci fib]
+23.8 +23.5 98 +32 +35 очень
душно
1012.9 1009.7 +22.4 1
03 21.08 В 3 7000 м 6/4 360 м
[Sc As trans Ci fib]
+30.1 +22.9 65 +40 +47 очень
душно
1012.6 1009.5
06 21.08 В 2 9000 м 6/6 360 м
[Sc As trans Ci fib]
+32.1 +21.3 53 +40 +47 очень
душно
1009.8 1006.6
09 21.08 СВ 2 9000 м 6/5 360 м
[Sc As trans Ci fib]
+32.7 +20.7 49 +40 +41 очень
душно
1009.1 1005.9
12 21.08 штиль 0 9000 м 4/3 400 м
[Sc As trans]
+29.1 +22.9 69 +39 +39 очень
душно
1010.9 1007.7 +33.1
15 21.08 ЮЗ 3 8000 м 4/3 400 м
[Sc As trans Ci fib]
+26.1 +23.9 88 +36 +36 очень
душно
1013.3 1010.1
18 21.08 штиль 0 7000 м 5/4 400 м
[Sc As trans Ci fib]
+25.2 +23.9 93 +35 +35 очень
душно
1012.7 1009.5
21 21.08 штиль 0 6000 м 5/4 400 м
[Sc As trans Ci fib]
+24.5 +23.3 93 +33 +33 очень
душно
1012.9 1009.7

 

Местоположение метеостанции Паоанкарая (Индонезия): широта -1.00 долгота 114.00 высота над уровнем моря 27 м.

В архиве по умолчанию представлена погода в Паоанкарая за последнюю неделю. Архивные данные за месяц целиком и за предыдущие месяцы, начиная с января 2011 года, Вы можете получить, выбрав интересующий диапазон дат из раскрывающегося списка и нажав кнопку "Ввод!".


*Определитесь, кто Вы:
робот инопланетянин человек

Внимание! Время в таблицах - всемирное. Для получения местного времени необходимо прибавить поправку, которая равна 7 ч.

Смотрите также архив погоды в соседних городах и на ближайших метеорологических станциях:

Погода в Муаратевехе (Индонезия) (100 км)
Погода на Путусиббау (Индонезия) (236 км)
Погода в Нангапинохе (Индонезия) (257 км)
Погода в Банджармасине (Индонезия) (283 км)
Погода в Синтанге (Индонезия) (302 км)
Погода в Пангкалан-Буне (Индонезия) (318 км)
Погода в Баликпапане (Индонезия) (324 км)
Погода в Самаринде (Индонезия) (353 км)
Погода в Котабару (Индонезия) (363 км)
Погода в Сибу (Малайзия) (442 км)

Пояснения к столбцам:

Ветер - указаны скорость ветра в м/с - средняя за 10 мин, порывы в срок и между сроками (в фигурных скобках) и направление, откуда дует ветер: С - северный, СВ - северо-восточный, В - восточный, ЮВ - юго-восточный, Ю - южный, ЮЗ - юго-западный, З - западный, СЗ - северо-западный.
Видимость - горизонтальная дальность видимости в метрах или километрах. При видимости от 1 до 10 км при отсутствии осадков обычно наблюдается дымка, при ухудшении видимости до 1 км и менее - туман. В сухую погоду видимость может ухудшаться дымом, пылью или мглою.
Явления - указаны атмосферные явления, наблюдавшиеся в срок или в последний час перед сроком; фигурными скобками обозначены явления, наблюдавшиеся между сроками (за 1-3 часа до срока); квадратными скобками обозначены град или гололедные отложения с указанием их диаметра в мм.
Облачность - указаны через наклонную черту общая и нижняя облачность в баллах и высота нижней границы облаков в метрах; квадратными скобками обозначены формы облаков: Ci - перистые, Cs - перисто-слоистые, Cc - перисто-кучевые, Ac - высококучевые, As - высокослоистые, Sc - слоисто-кучевые, Ns - слоисто-дождевые, Cu - кучевые, Cb - кучево-дождевые. Подробнее классификацию облаков см. в Атласе облаков (PDF).
T - Температура воздуха - температура, измеренная на высоте 2 м над землей.
Td - Температура точки росы - температура, при понижении до которой содержащийся в воздухе водяной пар достигнет насыщения.
f - Относительная влажность воздуха - влажноcть воздуха, измеренная на высоте 2 м над землей.
Te - Эффективная температура - температура, которую ощущает одетый по сезону человек в тени. Характеристика душности погоды. При расчете учитывается влияние влажности воздуха и скорости ветра на теплоощущения человека.
Tes - Эффективная температура на солнце - температура, которую ощущает человек, с поправкой на солнечный нагрев. Характеристика знойности погоды. Зависит от высоты солнца над горизонтом, облачности и скорости ветра. Ночью, в пасмурную погоду, а также при ветре 12 м/с и более поправка равна нулю.
P - Атмосферное давление - приведенное к уровню моря атмосферное давление.
Po - Атмосферное давление - измеренное на уровне метеостанции атмосферное давление.
Tmin - Минимальная температура - минимум температуры воздуха на высоте 2 м над землей.
Tmax - Максимальная температура - максимум температуры воздуха на высоте 2 м над землей.
R - Количество осадков - Количество выпавших осадков за период времени, мм. При наведении курсора мыши на число - период времени, за который выпало указанное количество осадков.
R24 - Количество осадков - Количество выпавших осадков за 24 часа, мм.
S - Снежный покров - Высота снежного покрова, см. При наведении курсора мыши на число - состояние снежного покрова и степень покрытия местности в баллах.